Year,Month,Day,Hour,Minute,Value (Times are PST for insolation in W/m^2)
2006,05,28,00,00,0.00
2006,05,28,00,01,0.00
2006,05,28,00,02,0.00
2006,05,28,00,03,0.00
2006,05,28,00,04,0.00
2006,05,28,00,05,0.00
2006,05,28,00,06,0.00
2006,05,28,00,07,0.00
2006,05,28,00,08,0.00
2006,05,28,00,09,0.00
2006,05,28,00,10,0.00
2006,05,28,00,11,0.00
2006,05,28,00,12,0.00
2006,05,28,00,13,0.00
2006,05,28,00,14,0.00
2006,05,28,00,15,0.00
2006,05,28,00,16,0.00
2006,05,28,00,17,0.00
2006,05,28,00,18,0.00
2006,05,28,00,19,0.00
2006,05,28,00,20,0.00
2006,05,28,00,21,0.00
2006,05,28,00,22,0.00
2006,05,28,00,23,0.00
2006,05,28,00,24,0.00
2006,05,28,00,25,0.00
2006,05,28,00,26,0.00
2006,05,28,00,27,0.00
2006,05,28,00,28,0.00
2006,05,28,00,29,0.00
2006,05,28,00,30,0.00
2006,05,28,00,31,0.00
2006,05,28,00,32,0.00
2006,05,28,00,33,0.00
2006,05,28,00,34,0.00
2006,05,28,00,35,0.00
2006,05,28,00,36,0.00
2006,05,28,00,37,0.00
2006,05,28,00,38,0.00
2006,05,28,00,39,0.00
2006,05,28,00,40,0.00
2006,05,28,00,41,0.00
2006,05,28,00,42,0.00
2006,05,28,00,43,0.00
2006,05,28,00,44,0.00
2006,05,28,00,45,0.00
2006,05,28,00,46,0.00
2006,05,28,00,47,0.00
2006,05,28,00,48,0.00
2006,05,28,00,49,0.00
2006,05,28,00,50,0.00
2006,05,28,00,51,0.00
2006,05,28,00,52,0.00
2006,05,28,00,53,0.00
2006,05,28,00,54,0.00
2006,05,28,00,55,0.00
2006,05,28,00,56,0.00
2006,05,28,00,57,0.00
2006,05,28,00,58,0.00
2006,05,28,00,59,0.00
2006,05,28,01,00,0.00
2006,05,28,01,01,0.00
2006,05,28,01,02,0.00
2006,05,28,01,03,0.00
2006,05,28,01,04,0.00
2006,05,28,01,05,0.00
2006,05,28,01,06,0.00
2006,05,28,01,07,0.00
2006,05,28,01,08,0.00
2006,05,28,01,09,0.00
2006,05,28,01,10,0.00
2006,05,28,01,11,0.00
2006,05,28,01,12,0.00
2006,05,28,01,13,0.00
2006,05,28,01,14,0.00
2006,05,28,01,15,0.00
2006,05,28,01,16,0.00
2006,05,28,01,17,0.00
2006,05,28,01,18,0.00
2006,05,28,01,19,0.00
2006,05,28,01,20,0.00
2006,05,28,01,21,0.00
2006,05,28,01,22,0.00
2006,05,28,01,23,0.00
2006,05,28,01,24,0.00
2006,05,28,01,25,0.00
2006,05,28,01,26,0.00
2006,05,28,01,27,0.00
2006,05,28,01,28,0.00
2006,05,28,01,29,0.00
2006,05,28,01,30,0.00
2006,05,28,01,31,0.00
2006,05,28,01,32,0.00
2006,05,28,01,33,0.00
2006,05,28,01,34,0.00
2006,05,28,01,35,0.00
2006,05,28,01,36,0.00
2006,05,28,01,37,0.00
2006,05,28,01,38,0.00
2006,05,28,01,39,0.00
2006,05,28,01,40,0.00
2006,05,28,01,41,0.00
2006,05,28,01,42,0.00
2006,05,28,01,43,0.00
2006,05,28,01,44,0.00
2006,05,28,01,45,0.00
2006,05,28,01,46,0.00
2006,05,28,01,47,0.00
2006,05,28,01,48,0.00
2006,05,28,01,49,0.00
2006,05,28,01,50,0.00
2006,05,28,01,51,0.00
2006,05,28,01,52,0.00
2006,05,28,01,53,0.00
2006,05,28,01,54,0.00
2006,05,28,01,55,0.00
2006,05,28,01,56,0.00
2006,05,28,01,57,0.00
2006,05,28,01,58,0.00
2006,05,28,01,59,0.00
2006,05,28,02,00,0.00
2006,05,28,02,01,0.00
2006,05,28,02,02,0.00
2006,05,28,02,03,0.00
2006,05,28,02,04,0.00
2006,05,28,02,05,0.00
2006,05,28,02,06,0.00
2006,05,28,02,07,0.00
2006,05,28,02,08,0.00
2006,05,28,02,09,0.00
2006,05,28,02,10,0.00
2006,05,28,02,11,0.00
2006,05,28,02,12,0.00
2006,05,28,02,13,0.00
2006,05,28,02,14,0.00
2006,05,28,02,15,0.00
2006,05,28,02,16,0.00
2006,05,28,02,17,0.00
2006,05,28,02,18,0.00
2006,05,28,02,19,0.00
2006,05,28,02,20,0.00
2006,05,28,02,21,0.00
2006,05,28,02,22,0.00
2006,05,28,02,23,0.00
2006,05,28,02,24,0.00
2006,05,28,02,25,0.00
2006,05,28,02,26,0.00
2006,05,28,02,27,0.00
2006,05,28,02,28,0.00
2006,05,28,02,29,0.00
2006,05,28,02,30,0.00
2006,05,28,02,31,0.00
2006,05,28,02,32,0.00
2006,05,28,02,33,0.00
2006,05,28,02,34,0.00
2006,05,28,02,35,0.00
2006,05,28,02,36,0.00
2006,05,28,02,37,0.00
2006,05,28,02,38,0.00
2006,05,28,02,39,0.00
2006,05,28,02,40,0.00
2006,05,28,02,41,0.00
2006,05,28,02,42,0.00
2006,05,28,02,43,0.00
2006,05,28,02,44,0.00
2006,05,28,02,45,0.00
2006,05,28,02,46,0.00
2006,05,28,02,47,0.00
2006,05,28,02,48,0.00
2006,05,28,02,49,0.00
2006,05,28,02,50,0.00
2006,05,28,02,51,0.00
2006,05,28,02,52,0.00
2006,05,28,02,53,0.00
2006,05,28,02,54,0.00
2006,05,28,02,55,0.00
2006,05,28,02,56,0.00
2006,05,28,02,57,0.00
2006,05,28,02,58,0.00
2006,05,28,02,59,0.00
2006,05,28,03,00,0.00
2006,05,28,03,01,0.00
2006,05,28,03,02,0.00
2006,05,28,03,03,0.00
2006,05,28,03,04,0.00
2006,05,28,03,05,0.00
2006,05,28,03,06,0.00
2006,05,28,03,07,0.00
2006,05,28,03,08,0.00
2006,05,28,03,09,0.00
2006,05,28,03,10,0.00
2006,05,28,03,11,0.00
2006,05,28,03,12,0.00
2006,05,28,03,13,0.00
2006,05,28,03,14,0.00
2006,05,28,03,15,0.00
2006,05,28,03,16,0.00
2006,05,28,03,17,0.00
2006,05,28,03,18,0.00
2006,05,28,03,19,0.00
2006,05,28,03,20,0.00
2006,05,28,03,21,0.00
2006,05,28,03,22,0.00
2006,05,28,03,23,0.00
2006,05,28,03,24,0.00
2006,05,28,03,25,0.00
2006,05,28,03,26,0.00
2006,05,28,03,27,0.00
2006,05,28,03,28,0.00
2006,05,28,03,29,0.00
2006,05,28,03,30,0.00
2006,05,28,03,31,0.00
2006,05,28,03,32,0.00
2006,05,28,03,33,0.00
2006,05,28,03,34,0.00
2006,05,28,03,35,0.00
2006,05,28,03,36,0.00
2006,05,28,03,37,0.00
2006,05,28,03,38,0.00
2006,05,28,03,39,0.00
2006,05,28,03,40,0.00
2006,05,28,03,41,0.00
2006,05,28,03,42,0.00
2006,05,28,03,43,0.00
2006,05,28,03,44,0.00
2006,05,28,03,45,0.00
2006,05,28,03,46,0.00
2006,05,28,03,47,0.00
2006,05,28,03,48,0.00
2006,05,28,03,49,0.00
2006,05,28,03,50,0.00
2006,05,28,03,51,0.00
2006,05,28,03,52,0.00
2006,05,28,03,53,0.00
2006,05,28,03,54,0.00
2006,05,28,03,55,0.00
2006,05,28,03,56,0.00
2006,05,28,03,57,0.00
2006,05,28,03,58,0.00
2006,05,28,03,59,0.00
2006,05,28,04,00,0.00
2006,05,28,04,01,0.00
2006,05,28,04,02,0.00
2006,05,28,04,03,0.00
2006,05,28,04,04,0.00
2006,05,28,04,05,0.00
2006,05,28,04,06,0.00
2006,05,28,04,07,0.00
2006,05,28,04,08,0.00
2006,05,28,04,09,0.00
2006,05,28,04,10,0.00
2006,05,28,04,11,0.00
2006,05,28,04,12,0.00
2006,05,28,04,13,0.00
2006,05,28,04,14,0.00
2006,05,28,04,15,0.00
2006,05,28,04,16,0.00
2006,05,28,04,17,0.00
2006,05,28,04,18,0.00
2006,05,28,04,19,0.00
2006,05,28,04,20,0.00
2006,05,28,04,21,0.00
2006,05,28,04,22,0.00
2006,05,28,04,23,0.00
2006,05,28,04,24,0.00
2006,05,28,04,25,0.00
2006,05,28,04,26,0.00
2006,05,28,04,27,0.00
2006,05,28,04,28,0.00
2006,05,28,04,29,0.00
2006,05,28,04,30,0.00
2006,05,28,04,31,0.00
2006,05,28,04,32,0.00
2006,05,28,04,33,0.00
2006,05,28,04,34,0.00
2006,05,28,04,35,0.00
2006,05,28,04,36,0.00
2006,05,28,04,37,0.00
2006,05,28,04,38,0.00
2006,05,28,04,39,0.00
2006,05,28,04,40,0.00
2006,05,28,04,41,0.00
2006,05,28,04,42,0.00
2006,05,28,04,43,0.00
2006,05,28,04,44,0.00
2006,05,28,04,45,0.00
2006,05,28,04,46,0.00
2006,05,28,04,47,0.00
2006,05,28,04,48,0.00
2006,05,28,04,49,0.00
2006,05,28,04,50,0.00
2006,05,28,04,51,0.00
2006,05,28,04,52,0.00
2006,05,28,04,53,0.00
2006,05,28,04,54,0.00
2006,05,28,04,55,0.00
2006,05,28,04,56,0.00
2006,05,28,04,57,0.00
2006,05,28,04,58,0.00
2006,05,28,04,59,0.00
2006,05,28,05,00,0.00
2006,05,28,05,01,0.00
2006,05,28,05,02,0.00
2006,05,28,05,03,0.00
2006,05,28,05,04,0.00
2006,05,28,05,05,0.00
2006,05,28,05,06,0.00
2006,05,28,05,07,0.00
2006,05,28,05,08,0.00
2006,05,28,05,09,0.00
2006,05,28,05,10,0.00
2006,05,28,05,11,0.00
2006,05,28,05,12,0.00
2006,05,28,05,13,0.00
2006,05,28,05,14,0.00
2006,05,28,05,15,0.00
2006,05,28,05,16,0.00
2006,05,28,05,17,0.00
2006,05,28,05,18,0.00
2006,05,28,05,19,0.00
2006,05,28,05,20,0.00
2006,05,28,05,21,0.00
2006,05,28,05,22,0.00
2006,05,28,05,23,0.00
2006,05,28,05,24,0.00
2006,05,28,05,25,0.00
2006,05,28,05,26,0.00
2006,05,28,05,27,0.00
2006,05,28,05,28,0.00
2006,05,28,05,29,0.00
2006,05,28,05,30,0.00
2006,05,28,05,31,0.00
2006,05,28,05,32,0.00
2006,05,28,05,33,0.00
2006,05,28,05,34,0.00
2006,05,28,05,35,0.00
2006,05,28,05,36,0.00
2006,05,28,05,37,2.20
2006,05,28,05,38,5.00
2006,05,28,05,39,5.00
2006,05,28,05,40,5.00
2006,05,28,05,41,5.00
2006,05,28,05,42,5.00
2006,05,28,05,43,5.00
2006,05,28,05,44,6.20
2006,05,28,05,45,7.00
2006,05,28,05,46,7.00
2006,05,28,05,47,7.00
2006,05,28,05,48,7.00
2006,05,28,05,49,7.00
2006,05,28,05,50,8.40
2006,05,28,05,51,9.00
2006,05,28,05,52,10.50
2006,05,28,05,53,11.00
2006,05,28,05,54,11.80
2006,05,28,05,55,12.00
2006,05,28,05,56,13.70
2006,05,28,05,57,15.70
2006,05,28,05,58,16.00
2006,05,28,05,59,17.90
2006,05,28,06,00,19.00
2006,05,28,06,01,20.90
2006,05,28,06,02,21.00
2006,05,28,06,03,21.00
2006,05,28,06,04,21.10
2006,05,28,06,05,23.00
2006,05,28,06,06,23.00
2006,05,28,06,07,23.00
2006,05,28,06,08,23.00
2006,05,28,06,09,23.00
2006,05,28,06,10,23.00
2006,05,28,06,11,23.30
2006,05,28,06,12,25.00
2006,05,28,06,13,25.20
2006,05,28,06,14,26.00
2006,05,28,06,15,26.60
2006,05,28,06,16,28.00
2006,05,28,06,17,28.60
2006,05,28,06,18,30.70
2006,05,28,06,19,32.40
2006,05,28,06,20,33.00
2006,05,28,06,21,33.00
2006,05,28,06,22,33.00
2006,05,28,06,23,33.00
2006,05,28,06,24,33.00
2006,05,28,06,25,32.50
2006,05,28,06,26,32.00
2006,05,28,06,27,32.00
2006,05,28,06,28,30.90
2006,05,28,06,29,30.00
2006,05,28,06,30,28.80
2006,05,28,06,31,28.00
2006,05,28,06,32,28.00
2006,05,28,06,33,28.00
2006,05,28,06,34,29.40
2006,05,28,06,35,30.00
2006,05,28,06,36,30.00
2006,05,28,06,37,31.40
2006,05,28,06,38,32.00
2006,05,28,06,39,32.00
2006,05,28,06,40,32.80
2006,05,28,06,41,33.00
2006,05,28,06,42,33.00
2006,05,28,06,43,34.70
2006,05,28,06,44,35.00
2006,05,28,06,45,36.80
2006,05,28,06,46,37.00
2006,05,28,06,47,38.90
2006,05,28,06,48,39.00
2006,05,28,06,49,40.00
2006,05,28,06,50,40.00
2006,05,28,06,51,42.00
2006,05,28,06,52,42.20
2006,05,28,06,53,47.20
2006,05,28,06,54,51.30
2006,05,28,06,55,54.40
2006,05,28,06,56,58.60
2006,05,28,06,57,62.50
2006,05,28,06,58,66.00
2006,05,28,06,59,70.80
2006,05,28,07,00,74.40
2006,05,28,07,01,76.20
2006,05,28,07,02,77.60
2006,05,28,07,03,79.50
2006,05,28,07,04,81.90
2006,05,28,07,05,83.70
2006,05,28,07,06,84.10
2006,05,28,07,07,87.40
2006,05,28,07,08,91.10
2006,05,28,07,09,93.00
2006,05,28,07,10,93.90
2006,05,28,07,11,99.10
2006,05,28,07,12,112.50
2006,05,28,07,13,121.00
2006,05,28,07,14,120.50
2006,05,28,07,15,120.00
2006,05,28,07,16,125.50
2006,05,28,07,17,128.90
2006,05,28,07,18,130.30
2006,05,28,07,19,136.30
2006,05,28,07,20,142.20
2006,05,28,07,21,146.80
2006,05,28,07,22,150.10
2006,05,28,07,23,152.40
2006,05,28,07,24,159.30
2006,05,28,07,25,160.50
2006,05,28,07,26,172.00
2006,05,28,07,27,156.00
2006,05,28,07,28,142.90
2006,05,28,07,29,137.60
2006,05,28,07,30,134.40
2006,05,28,07,31,130.40
2006,05,28,07,32,127.30
2006,05,28,07,33,125.10
2006,05,28,07,34,120.50
2006,05,28,07,35,114.30
2006,05,28,07,36,109.20
2006,05,28,07,37,101.80
2006,05,28,07,38,96.70
2006,05,28,07,39,90.90
2006,05,28,07,40,90.00
2006,05,28,07,41,90.00
2006,05,28,07,42,90.40
2006,05,28,07,43,93.30
2006,05,28,07,44,95.00
2006,05,28,07,45,94.60
2006,05,28,07,46,93.00
2006,05,28,07,47,93.00
2006,05,28,07,48,93.50
2006,05,28,07,49,95.50
2006,05,28,07,50,97.30
2006,05,28,07,51,99.20
2006,05,28,07,52,103.10
2006,05,28,07,53,105.70
2006,05,28,07,54,107.80
2006,05,28,07,55,109.70
2006,05,28,07,56,111.80
2006,05,28,07,57,112.20
2006,05,28,07,58,111.00
2006,05,28,07,59,111.00
2006,05,28,08,00,112.10
2006,05,28,08,01,113.00
2006,05,28,08,02,113.00
2006,05,28,08,03,113.00
2006,05,28,08,04,113.60
2006,05,28,08,05,114.00
2006,05,28,08,06,117.90
2006,05,28,08,07,123.20
2006,05,28,08,08,129.80
2006,05,28,08,09,137.90
2006,05,28,08,10,146.60
2006,05,28,08,11,154.20
2006,05,28,08,12,159.00
2006,05,28,08,13,161.50
2006,05,28,08,14,162.00
2006,05,28,08,15,162.80
2006,05,28,08,16,164.60
2006,05,28,08,17,165.00
2006,05,28,08,18,165.00
2006,05,28,08,19,165.00
2006,05,28,08,20,165.00
2006,05,28,08,21,166.90
2006,05,28,08,22,167.00
2006,05,28,08,23,163.20
2006,05,28,08,24,162.00
2006,05,28,08,25,163.10
2006,05,28,08,26,164.90
2006,05,28,08,27,163.00
2006,05,28,08,28,164.00
2006,05,28,08,29,176.90
2006,05,28,08,30,195.40
2006,05,28,08,31,209.00
2006,05,28,08,32,213.70
2006,05,28,08,33,242.10
2006,05,28,08,34,268.20
2006,05,28,08,35,297.80
2006,05,28,08,36,304.50
2006,05,28,08,37,328.50
2006,05,28,08,38,286.50
2006,05,28,08,39,281.50
2006,05,28,08,40,275.90
2006,05,28,08,41,271.00
2006,05,28,08,42,269.80
2006,05,28,08,43,275.00
2006,05,28,08,44,285.00
2006,05,28,08,45,289.10
2006,05,28,08,46,291.50
2006,05,28,08,47,316.50
2006,05,28,08,48,349.50
2006,05,28,08,49,320.00
2006,05,28,08,50,278.20
2006,05,28,08,51,266.00
2006,05,28,08,52,260.90
2006,05,28,08,53,258.20
2006,05,28,08,54,255.70
2006,05,28,08,55,255.00
2006,05,28,08,56,256.30
2006,05,28,08,57,257.70
2006,05,28,08,58,258.00
2006,05,28,08,59,259.50
2006,05,28,09,00,263.00
2006,05,28,09,01,264.00
2006,05,28,09,02,264.80
2006,05,28,09,03,265.00
2006,05,28,09,04,270.90
2006,05,28,09,05,277.10
2006,05,28,09,06,278.90
2006,05,28,09,07,279.00
2006,05,28,09,08,282.60
2006,05,28,09,09,283.00
2006,05,28,09,10,291.50
2006,05,28,09,11,294.90
2006,05,28,09,12,293.80
2006,05,28,09,13,290.00
2006,05,28,09,14,290.50
2006,05,28,09,15,295.60
2006,05,28,09,16,301.00
2006,05,28,09,17,299.70
2006,05,28,09,18,291.20
2006,05,28,09,19,288.60
2006,05,28,09,20,292.00
2006,05,28,09,21,292.00
2006,05,28,09,22,295.40
2006,05,28,09,23,307.50
2006,05,28,09,24,304.80
2006,05,28,09,25,299.80
2006,05,28,09,26,296.10
2006,05,28,09,27,292.60
2006,05,28,09,28,288.90
2006,05,28,09,29,287.00
2006,05,28,09,30,286.20
2006,05,28,09,31,284.10
2006,05,28,09,32,283.90
2006,05,28,09,33,285.00
2006,05,28,09,34,285.00
2006,05,28,09,35,284.00
2006,05,28,09,36,283.00
2006,05,28,09,37,283.00
2006,05,28,09,38,283.00
2006,05,28,09,39,283.00
2006,05,28,09,40,284.20
2006,05,28,09,41,286.30
2006,05,28,09,42,287.60
2006,05,28,09,43,288.00
2006,05,28,09,44,290.90
2006,05,28,09,45,292.00
2006,05,28,09,46,292.00
2006,05,28,09,47,293.50
2006,05,28,09,48,294.80
2006,05,28,09,49,295.00
2006,05,28,09,50,295.00
2006,05,28,09,51,296.70
2006,05,28,09,52,300.40
2006,05,28,09,53,307.30
2006,05,28,09,54,308.00
2006,05,28,09,55,310.90
2006,05,28,09,56,315.70
2006,05,28,09,57,326.50
2006,05,28,09,58,345.00
2006,05,28,09,59,345.30
2006,05,28,10,00,352.40
2006,05,28,10,01,360.70
2006,05,28,10,02,377.70
2006,05,28,10,03,442.80
2006,05,28,10,04,399.60
2006,05,28,10,05,428.70
2006,05,28,10,06,412.40
2006,05,28,10,07,420.10
2006,05,28,10,08,412.40
2006,05,28,10,09,404.00
2006,05,28,10,10,385.00
2006,05,28,10,11,385.00
2006,05,28,10,12,379.30
2006,05,28,10,13,361.10
2006,05,28,10,14,342.50
2006,05,28,10,15,320.60
2006,05,28,10,16,311.10
2006,05,28,10,17,307.20
2006,05,28,10,18,306.90
2006,05,28,10,19,309.40
2006,05,28,10,20,313.50
2006,05,28,10,21,319.00
2006,05,28,10,22,326.40
2006,05,28,10,23,335.00
2006,05,28,10,24,346.50
2006,05,28,10,25,365.20
2006,05,28,10,26,406.20
2006,05,28,10,27,431.00
2006,05,28,10,28,431.00
2006,05,28,10,29,429.70
2006,05,28,10,30,429.00
2006,05,28,10,31,429.00
2006,05,28,10,32,431.20
2006,05,28,10,33,432.00
2006,05,28,10,34,407.20
2006,05,28,10,35,399.00
2006,05,28,10,36,418.80
2006,05,28,10,37,461.50
2006,05,28,10,38,468.00
2006,05,28,10,39,468.00
2006,05,28,10,40,468.00
2006,05,28,10,41,468.00
2006,05,28,10,42,468.00
2006,05,28,10,43,468.00
2006,05,28,10,44,420.40
2006,05,28,10,45,362.00
2006,05,28,10,46,352.00
2006,05,28,10,47,353.70
2006,05,28,10,48,369.00
2006,05,28,10,49,369.70
2006,05,28,10,50,373.50
2006,05,28,10,51,356.30
2006,05,28,10,52,339.40
2006,05,28,10,53,328.50
2006,05,28,10,54,319.00
2006,05,28,10,55,315.80
2006,05,28,10,56,316.20
2006,05,28,10,57,307.30
2006,05,28,10,58,294.00
2006,05,28,10,59,285.00
2006,05,28,11,00,280.20
2006,05,28,11,01,267.60
2006,05,28,11,02,264.00
2006,05,28,11,03,262.00
2006,05,28,11,04,261.20
2006,05,28,11,05,260.00
2006,05,28,11,06,259.20
2006,05,28,11,07,258.00
2006,05,28,11,08,257.50
2006,05,28,11,09,253.70
2006,05,28,11,10,250.40
2006,05,28,11,11,247.70
2006,05,28,11,12,244.90
2006,05,28,11,13,245.10
2006,05,28,11,14,247.20
2006,05,28,11,15,248.00
2006,05,28,11,16,248.00
2006,05,28,11,17,246.60
2006,05,28,11,18,243.90
2006,05,28,11,19,240.20
2006,05,28,11,20,237.50
2006,05,28,11,21,234.80
2006,05,28,11,22,234.00
2006,05,28,11,23,234.00
2006,05,28,11,24,230.80
2006,05,28,11,25,230.00
2006,05,28,11,26,230.00
2006,05,28,11,27,233.60
2006,05,28,11,28,242.10
2006,05,28,11,29,252.50
2006,05,28,11,30,270.10
2006,05,28,11,31,293.90
2006,05,28,11,32,287.20
2006,05,28,11,33,292.00
2006,05,28,11,34,283.50
2006,05,28,11,35,295.30
2006,05,28,11,36,322.50
2006,05,28,11,37,369.00
2006,05,28,11,38,391.70
2006,05,28,11,39,596.00
2006,05,28,11,40,596.00
2006,05,28,11,41,596.00
2006,05,28,11,42,596.00
2006,05,28,11,43,596.00
2006,05,28,11,44,596.00
2006,05,28,11,45,596.00
2006,05,28,11,46,529.10
2006,05,28,11,47,353.80
2006,05,28,11,48,308.20
2006,05,28,11,49,281.60
2006,05,28,11,50,266.20
2006,05,28,11,51,262.00
2006,05,28,11,52,262.90
2006,05,28,11,53,269.40
2006,05,28,11,54,276.00
2006,05,28,11,55,276.00
2006,05,28,11,56,611.50
2006,05,28,11,57,941.50
2006,05,28,11,58,937.00
2006,05,28,11,59,842.40
2006,05,28,12,00,774.00
2006,05,28,12,01,746.40
2006,05,28,12,02,724.00
2006,05,28,12,03,668.10
2006,05,28,12,04,694.70
2006,05,28,12,05,719.00
2006,05,28,12,06,858.30
2006,05,28,12,07,891.50
2006,05,28,12,08,906.40
2006,05,28,12,09,926.40
2006,05,28,12,10,928.40
2006,05,28,12,11,928.00
2006,05,28,12,12,928.00
2006,05,28,12,13,928.00
2006,05,28,12,14,946.80
2006,05,28,12,15,949.00
2006,05,28,12,16,902.60
2006,05,28,12,17,948.60
2006,05,28,12,18,971.10
2006,05,28,12,19,972.00
2006,05,28,12,20,972.00
2006,05,28,12,21,972.00
2006,05,28,12,22,972.00
2006,05,28,12,23,983.60
2006,05,28,12,24,1087.80
2006,05,28,12,25,1084.60
2006,05,28,12,26,1076.00
2006,05,28,12,27,1078.60
2006,05,28,12,28,1088.20
2006,05,28,12,29,1066.80
2006,05,28,12,30,1057.70
2006,05,28,12,31,1053.00
2006,05,28,12,32,1069.60
2006,05,28,12,33,1081.00
2006,05,28,12,34,1081.00
2006,05,28,12,35,831.80
2006,05,28,12,36,404.00
2006,05,28,12,37,473.50
2006,05,28,12,38,489.00
2006,05,28,12,39,656.20
2006,05,28,12,40,907.60
2006,05,28,12,41,940.00
2006,05,28,12,42,940.00
2006,05,28,12,43,632.50
2006,05,28,12,44,306.50
2006,05,28,12,45,295.70
2006,05,28,12,46,333.40
2006,05,28,12,47,359.00
2006,05,28,12,48,359.00
2006,05,28,12,49,788.70
2006,05,28,12,50,1020.00
2006,05,28,12,51,1020.00
2006,05,28,12,52,1020.00
2006,05,28,12,53,906.40
2006,05,28,12,54,861.00
2006,05,28,12,55,861.00
2006,05,28,12,56,952.40
2006,05,28,12,57,981.00
2006,05,28,12,58,981.00
2006,05,28,12,59,981.00
2006,05,28,13,00,977.40
2006,05,28,13,01,989.50
2006,05,28,13,02,940.60
2006,05,28,13,03,1007.20
2006,05,28,13,04,987.30
2006,05,28,13,05,986.00
2006,05,28,13,06,986.00
2006,05,28,13,07,985.70
2006,05,28,13,08,979.00
2006,05,28,13,09,934.50
2006,05,28,13,10,542.30
2006,05,28,13,11,617.00
2006,05,28,13,12,617.00
2006,05,28,13,13,617.00
2006,05,28,13,14,617.00
2006,05,28,13,15,617.00
2006,05,28,13,16,576.60
2006,05,28,13,17,434.80
2006,05,28,13,18,494.00
2006,05,28,13,19,523.70
2006,05,28,13,20,612.10
2006,05,28,13,21,645.00
2006,05,28,13,22,645.00
2006,05,28,13,23,601.40
2006,05,28,13,24,542.40
2006,05,28,13,25,552.00
2006,05,28,13,26,552.00
2006,05,28,13,27,552.00
2006,05,28,13,28,794.50
2006,05,28,13,29,1037.00
2006,05,28,13,30,870.00
2006,05,28,13,31,703.00
2006,05,28,13,32,703.00
2006,05,28,13,33,703.00
2006,05,28,13,34,703.00
2006,05,28,13,35,578.00
2006,05,28,13,36,488.60
2006,05,28,13,37,472.90
2006,05,28,13,38,464.10
2006,05,28,13,39,427.70
2006,05,28,13,40,410.90
2006,05,28,13,41,431.70
2006,05,28,13,42,479.20
2006,05,28,13,43,529.30
2006,05,28,13,44,558.40
2006,05,28,13,45,565.40
2006,05,28,13,46,566.00
2006,05,28,13,47,653.40
2006,05,28,13,48,668.00
2006,05,28,13,49,848.50
2006,05,28,13,50,818.10
2006,05,28,13,51,816.00
2006,05,28,13,52,454.00
2006,05,28,13,53,454.00
2006,05,28,13,54,460.00
2006,05,28,13,55,576.00
2006,05,28,13,56,601.30
2006,05,28,13,57,649.00
2006,05,28,13,58,649.00
2006,05,28,13,59,635.80
2006,05,28,14,00,517.00
2006,05,28,14,01,505.80
2006,05,28,14,02,445.00
2006,05,28,14,03,442.00
2006,05,28,14,04,445.00
2006,05,28,14,05,445.00
2006,05,28,14,06,443.80
2006,05,28,14,07,433.70
2006,05,28,14,08,421.30
2006,05,28,14,09,436.50
2006,05,28,14,10,455.10
2006,05,28,14,11,461.10
2006,05,28,14,12,468.00
2006,05,28,14,13,468.00
2006,05,28,14,14,468.00
2006,05,28,14,15,468.00
2006,05,28,14,16,468.00
2006,05,28,14,17,468.00
2006,05,28,14,18,468.00
2006,05,28,14,19,468.00
2006,05,28,14,20,875.50
2006,05,28,14,21,1209.00
2006,05,28,14,22,1209.00
2006,05,28,14,23,1209.00
2006,05,28,14,24,1173.40
2006,05,28,14,25,1151.20
2006,05,28,14,26,1157.30
2006,05,28,14,27,1170.80
2006,05,28,14,28,1193.30
2006,05,28,14,29,1196.20
2006,05,28,14,30,1217.40
2006,05,28,14,31,1223.00
2006,05,28,14,32,1223.00
2006,05,28,14,33,1223.00
2006,05,28,14,34,1235.90
2006,05,28,14,35,1238.00
2006,05,28,14,36,1238.00
2006,05,28,14,37,1238.00
2006,05,28,14,38,1238.00
2006,05,28,14,39,1238.00
2006,05,28,14,40,912.00
2006,05,28,14,41,912.00
2006,05,28,14,42,912.00
2006,05,28,14,43,928.70
2006,05,28,14,44,1079.00
2006,05,28,14,45,1066.40
2006,05,28,14,46,1001.60
2006,05,28,14,47,1037.00
2006,05,28,14,48,978.30
2006,05,28,14,49,709.20
2006,05,28,14,50,635.00
2006,05,28,14,51,624.50
2006,05,28,14,52,568.50
2006,05,28,14,53,519.00
2006,05,28,14,54,555.90
2006,05,28,14,55,642.00
2006,05,28,14,56,545.40
2006,05,28,14,57,366.00
2006,05,28,14,58,366.00
2006,05,28,14,59,366.00
2006,05,28,15,00,366.00
2006,05,28,15,01,659.10
2006,05,28,15,02,1062.00
2006,05,28,15,03,822.80
2006,05,28,15,04,529.00
2006,05,28,15,05,501.00
2006,05,28,15,06,501.00
2006,05,28,15,07,753.00
2006,05,28,15,08,942.00
2006,05,28,15,09,942.00
2006,05,28,15,10,921.60
2006,05,28,15,11,909.00
2006,05,28,15,12,893.70
2006,05,28,15,13,884.60
2006,05,28,15,14,887.50
2006,05,28,15,15,880.60
2006,05,28,15,16,864.20
2006,05,28,15,17,908.80
2006,05,28,15,18,945.00
2006,05,28,15,19,951.00
2006,05,28,15,20,761.50
2006,05,28,15,21,751.70
2006,05,28,15,22,696.10
2006,05,28,15,23,628.70
2006,05,28,15,24,582.20
2006,05,28,15,25,578.00
2006,05,28,15,26,766.00
2006,05,28,15,27,834.40
2006,05,28,15,28,838.00
2006,05,28,15,29,821.50
2006,05,28,15,30,492.00
2006,05,28,15,31,510.70
2006,05,28,15,32,679.00
2006,05,28,15,33,686.90
2006,05,28,15,34,758.00
2006,05,28,15,35,759.60
2006,05,28,15,36,745.40
2006,05,28,15,37,687.60
2006,05,28,15,38,780.30
2006,05,28,15,39,806.80
2006,05,28,15,40,749.00
2006,05,28,15,41,721.20
2006,05,28,15,42,635.30
2006,05,28,15,43,584.00
2006,05,28,15,44,584.00
2006,05,28,15,45,669.60
2006,05,28,15,46,798.00
2006,05,28,15,47,803.60
2006,05,28,15,48,801.70
2006,05,28,15,49,789.90
2006,05,28,15,50,796.20
2006,05,28,15,51,799.00
2006,05,28,15,52,790.00
2006,05,28,15,53,778.00
2006,05,28,15,54,770.10
2006,05,28,15,55,774.60
2006,05,28,15,56,779.00
2006,05,28,15,57,779.00
2006,05,28,15,58,792.30
2006,05,28,15,59,785.00
2006,05,28,16,00,762.90
2006,05,28,16,01,748.30
2006,05,28,16,02,741.50
2006,05,28,16,03,737.80
2006,05,28,16,04,737.80
2006,05,28,16,05,738.00
2006,05,28,16,06,738.00
2006,05,28,16,07,737.20
2006,05,28,16,08,735.30
2006,05,28,16,09,733.20
2006,05,28,16,10,731.20
2006,05,28,16,11,729.10
2006,05,28,16,12,732.80
2006,05,28,16,13,729.00
2006,05,28,16,14,727.80
2006,05,28,16,15,723.70
2006,05,28,16,16,716.90
2006,05,28,16,17,714.90
2006,05,28,16,18,714.00
2006,05,28,16,19,713.80
2006,05,28,16,20,711.60
2006,05,28,16,21,708.00
2006,05,28,16,22,708.00
2006,05,28,16,23,707.00
2006,05,28,16,24,703.00
2006,05,28,16,25,702.50
2006,05,28,16,26,700.70
2006,05,28,16,27,699.40
2006,05,28,16,28,697.40
2006,05,28,16,29,695.30
2006,05,28,16,30,693.00
2006,05,28,16,31,688.20
2006,05,28,16,32,681.20
2006,05,28,16,33,677.00
2006,05,28,16,34,674.30
2006,05,28,16,35,670.50
2006,05,28,16,36,670.00
2006,05,28,16,37,621.50
2006,05,28,16,38,621.40
2006,05,28,16,39,664.70
2006,05,28,16,40,661.40
2006,05,28,16,41,652.20
2006,05,28,16,42,649.00
2006,05,28,16,43,647.80
2006,05,28,16,44,645.80
2006,05,28,16,45,642.90
2006,05,28,16,46,639.30
2006,05,28,16,47,634.50
2006,05,28,16,48,631.50
2006,05,28,16,49,631.00
2006,05,28,16,50,629.40
2006,05,28,16,51,637.70
2006,05,28,16,52,645.60
2006,05,28,16,53,643.80
2006,05,28,16,54,640.60
2006,05,28,16,55,646.00
2006,05,28,16,56,647.00
2006,05,28,16,57,647.00
2006,05,28,16,58,655.10
2006,05,28,16,59,656.00
2006,05,28,17,00,654.00
2006,05,28,17,01,643.00
2006,05,28,17,02,638.00
2006,05,28,17,03,638.10
2006,05,28,17,04,640.00
2006,05,28,17,05,639.80
2006,05,28,17,06,636.90
2006,05,28,17,07,625.60